This demonstration page uses our WeatherBlox Daily Observations layout. Learn more.

Left ArrowRight Arrow

34.16533, -84.80231

Hourly Observations for August 8, 2017

Temp ( °F °C ) Dew Point ( °F °C ) Humidity (%) Winds ( mph kmh ) Pressure ( in mb ) Visibility ( mi km ) Precip ( " mm )
12:53 am 00:53 Cloudy 70 21.1 69 20.6 97 97 Calm 30.01 1016 10 16 0.00 0.00
1:53 am 01:53 Cloudy 69 20.6 69 20.6 100 100 NE 3 6 29.98 1015 10 16 0.06 1.52
2:53 am 02:53 Clear 69 20.6 69 20.6 100 100 Calm 29.97 1015 9 14 0.00 0.00
3:21 am 03:21 Mostly Clear 69 20.6 69 20.6 100 100 Calm 30.00 1016 10 16 0.00 0.00
3:50 am 03:50 Mostly Cloudy 70 21 70 21 100 100 Calm 30.00 1016 9 14 0.00 0.00
3:53 am 03:53 Cloudy 69 20.6 69 20.6 100 100 Calm 29.98 1015 8 13 0.00 0.00
4:05 am 04:05 Cloudy 69 20.6 69 20.6 100 100 Calm 30.00 1016 9 14 0.00 0.00
4:29 am 04:29 Cloudy 69 20.6 69 20.6 100 100 Calm 30.00 1016 9 14 0.00 0.00
4:42 am 04:42 Cloudy 69 20.6 69 20.6 100 100 Calm 30.00 1016 9 14 0.00 0.00
4:53 am 04:53 Cloudy 69 20.6 69 20.6 100 100 Calm 29.97 1015 8 13 0.00 0.00
5:06 am 05:06 Cloudy 69 20.6 69 20.6 100 100 Calm 30.00 1016 8 13 0.00 0.00
5:53 am 05:53 Cloudy with Light Rain 69 20.6 69 20.6 100 100 Calm 29.97 1015 8 13 0.00 0.03
6:07 am 06:07 Cloudy 69 20.6 69 20.6 100 100 Calm 30.03 1017 8 13 0.01 0.25
6:21 am 06:21 Cloudy with Light Rain 69 20.6 69 20.6 100 100 Calm 30.03 1017 8 13 0.01 0.25
6:53 am 06:53 Cloudy with Light Rain 69 20.6 69 20.6 100 100 Calm 30.00 1016 5 8 0.05 1.27
7:18 am 07:18 Cloudy with Light Rain 69 20.6 69 20.6 100 100 Calm 30.03 1017 6 10 0.03 0.76
7:53 am 07:53 Cloudy with Light Rain 69 20.6 69 20.6 100 100 Calm 30.01 1016 4 6 0.05 1.27
8:41 am 08:41 Cloudy with Light Rain 70 21.1 70 21.1 100 100 Calm 30.03 1017 7 11 0.02 0.51
8:45 am 08:45 Cloudy 70 21.1 70 21.1 100 100 Calm 30.03 1017 7 11 0.02 0.51
8:53 am 08:53 Cloudy 70 21.1 70 21.1 100 100 Calm 30.02 1017 7 11 0.02 0.51
9:22 am 09:22 Cloudy with Light Rain 70 21.1 70 21.1 100 100 Calm 30.03 1017 7 11 0.00 0.03
9:53 am 09:53 Cloudy 71 21.7 71 21.7 100 100 Calm 30.03 1017 8 13 0.01 0.25
10:53 am 10:53 Cloudy 73 22.8 71 21.7 94 94 Calm 30.04 1017 10 16 0.00 0.00
11:21 am 11:21 Cloudy 74 23.3 72 22.2 94 94 Calm 30.06 1018 10 16 0.00 0.00
11:53 am 11:53 Cloudy 75 23.9 71 21.7 88 88 Calm 30.04 1017 10 16 0.00 0.00
12:18 pm 12:18 Cloudy 75 23.9 72 22.2 90 90 Calm 30.06 1018 10 16 0.00 0.00
12:41 pm 12:41 Cloudy with Rain 74 23.3 73 22.8 97 97 Calm 30.06 1018 3 4 0.01 0.25
12:53 pm 12:53 Cloudy with Rain 71 21.7 71 21.7 100 100 Calm 30.05 1018 3 4 0.03 0.76
1:04 pm 13:04 Cloudy with Light Rain 71 21.7 71 21.7 100 100 Calm 30.06 1018 4 6 0.01 0.25
1:53 pm 13:53 Cloudy 74 23.3 71 21.7 91 91 S 5 7 30.03 1017 10 16 0.01 0.25
2:53 pm 14:53 Partly Cloudy 79 26.1 72 22.2 79 79 VRB 5 7 30.01 1016 10 16 0.00 0.00
3:23 pm 15:23 Mostly Cloudy 80 26.7 72 22.2 76 76 S 5 7 30.00 1016 10 16 0.00 0.00
3:53 pm 15:53 Mostly Cloudy 80 26.7 72 22.2 76 76 S 6 9 30.00 1016 10 16 0.00 0.00
4:03 pm 16:03 Mostly Cloudy 79 26.1 71 21.7 77 77 Calm 30.00 1016 10 16 0.00 0.00
4:36 pm 16:36 Partly Cloudy 80 26.7 71 21.7 74 74 Calm 30.00 1016 10 16 0.00 0.00
4:53 pm 16:53 Sunny 80 26.7 72 22.2 76 76 SSW 3 6 29.99 1016 10 16 0.00 0.00
5:53 pm 17:53 Mostly Sunny 80 26.7 72 22.2 76 76 Calm 29.98 1015 10 16 0.00 0.00
6:53 pm 18:53 Mostly Sunny 79 26.1 74 23.3 85 85 VRB 3 6 29.99 1016 10 16 0.00 0.00
7:53 pm 19:53 Cloudy 77 25 74 23.3 90 90 SW 3 6 30.00 1016 10 16 0.00 0.00
8:53 pm 20:53 Partly Cloudy 75 23.9 74 23.3 96 96 Calm 30.01 1016 10 16 0.00 0.00
9:53 pm 21:53 Mostly Cloudy 74 23.3 74 23.3 100 100 Calm 30.03 1017 10 16 0.00 0.00
10:53 pm 22:53 Mostly Cloudy 74 23.3 74 23.3 100 100 Calm 30.04 1017 10 16 0.00 0.00
11:53 pm 23:53 Clear 72 22.2 72 22.2 100 100 Calm 30.04 1017 9 14 0.00 0.00

Powered by AerisWeather